Regional Weather Roundup
Issued by NWS

Home | Current Version | Previous Version | Graphics & Text | Print | Product List | Glossary On
Versions: 1 2 3 4 5 6 7 8 9 10 11 12 13 14 15 16 17 18 19 20 21 22 23 24 25 26 27 28 29 30 31 32 33 34 35 36 37 38 39 40 41 42 43 44 45 46 47 48 49 50
000
ASUS43 KLOT 210808
RWRIL

ILLINOIS REGIONAL WEATHER ROUNDUP
NATIONAL WEATHER SERVICE CHICAGO/ROMEOVILLE IL
200 AM CST SUN JAN 21 2018

NOTE: "FAIR" INDICATES FEW OR NO CLOUDS BELOW 12,000 FEET WITH NO
SIGNIFICANT WEATHER AND/OR OBSTRUCTIONS TO VISIBILITY.

* THESE STATIONS ARE NOT UNDER NWS QUALITY CONTROL. THEY ALSO MAY NOT
  REPORT WEATHER SUCH AS PRECIPITATION OR FOG.

ILZ001-002-007-009-015-016-024-210900-
NORTHWEST ILLINOIS

CITY           SKY/WX    TMP DP  RH WIND       PRES   REMARKS
MOLINE         CLOUDY    40  37  89 E6        29.93S
STERLING*      CLOUDY    35  34  96 E3        29.97R FOG
SAVANNA*       CLOUDY    35  34  96 E5        29.96R FOG     WCI  31
$$

ILZ003-004-008-010-011-017-018-210900-
NORTH CENTRAL ILLINOIS

CITY           SKY/WX    TMP DP  RH WIND       PRES   REMARKS
ROCKFORD       FAIR      35  34  96 CALM      29.98S FOG
FREEPORT*      FOG       32  32 100 CALM      29.98R VSB 1
ROCHELLE*      CLOUDY    36  36  99 SE6       29.98R FOG     WCI  31
DE KALB*       CLOUDY    37  36  99 S7        29.98S FOG     WCI  31
PERU*          CLOUDY    39  36  88 S7        29.97F WCI  34
$$

ILZ005-006-012>014-019>023-210900-
NORTHEAST ILLINOIS

CITY           SKY/WX    TMP DP  RH WIND       PRES   REMARKS
CHICAGO-OHARE  CLOUDY    39  35  86 CALM      29.99R
CHICAGO-MIDWAY CLOUDY    40  36  86 S6        30.00R
AURORA         CLOUDY    38  36  92 CALM      29.99R FOG
LANSING*       CLOUDY    38  37  99 CALM      30.01R
JOLIET*        CLOUDY    40  38  93 CALM      30.00R
WAUKEGAN       CLOUDY    36  34  92 CALM      29.99R FOG
DUPAGE AIRPORT CLOUDY    38  37  97 S3        29.98R FOG
KANKAKEE*      CLOUDY   N/A N/A N/A S3        30.02R
WHEELING       CLOUDY    39  37  92 CALM      30.01R
MORRIS*        CLOUDY    38  36  92 S5        29.99R WCI  34
ROMEOVILLE*    CLOUDY    37  36  93 S7        30.00R WCI  32
NORTHERLY ISL    N/A     40  35  83 S7          N/A
$$

LMZ740>746-210900-
SOUTHERN LAKE MICHIGAN

STATION/POSITION SKY/WX   TEMP    WIND        PRES    VSBY  WAVE
                          AIR SEA DIR/SP/G                  HT/PER
                          (F)     (DEG/KT/KT) (MB)    (MI)  (FT/S)
HARRISON CRIB              41     180/ 11/ 12   N/A
BURNHAM HARBOR             40     200/  7/  9   N/A
CALUMET HARBOR             39     180/  5/  6 1015.4R
BURNS HARBOR               38     200/  9/ 11 1016.9S
MICHIGAN CITY              39     170/ 11/ 13   N/A
$$

ILZ025>027-034>036-040-047-049-050-058-095>099-210900-
WEST-CENTRAL ILLINOIS

CITY           SKY/WX    TMP DP  RH WIND       PRES   REMARKS
QUINCY         CLOUDY    39  37  92 SE8       29.92S WCI  33
GALESBURG*     CLOUDY    42  39  89 SE3       29.95S
MACOMB*        CLOUDY    40  37  92 CALM      29.96S
JACKSONVILLE*  CLEAR     29  28  97 E3        29.95S FOG
PITTSFIELD*    CLEAR     35  34  99 CALM      29.95R FOG
$$

ILZ028>032-037-038-041>044-048-051>054-059>061-210900-
CENTRAL ILLINOIS

CITY           SKY/WX    TMP DP  RH WIND       PRES   REMARKS
PONTIAC        CLOUDY    39  38  99 SE7       30.00R FOG     WCI  34
BLOOMINGTON    LGT RAIN  38  38 100 S8        30.00R VSB 1/4 WCI  32
DECATUR        CLOUDY    42  42 100 S7        29.99R FOG
PEORIA         CLOUDY    41  37  86 SE5       29.97S
LACON*         CLOUDY    40  38  89 S6        29.96F
LINCOLN*       FOG       37  37 100 CALM      29.99R VSB 1/4
SPRINGFIELD    CLOUDY    43  41  93 S12       29.97S
TAYLORVILLE    CLOUDY    43  43  98 S8        29.99R
$$

ILZ033-039-045-046-055>057-062-063-210900-
EAST-CENTRAL ILLINOIS

CITY           SKY/WX    TMP DP  RH WIND       PRES   REMARKS
CHAMPAIGN      FOG       39  39 100 SE6       30.00S VSB 1/4 WCI  35
DANVILLE*      FOG       37  37 100 SE5       30.00S VSB 1/4 WCI  34
RANTOUL*       FOG       39  39  99 SE3       30.01R VSB 1/4
MATTOON        LGT RAIN  41  40  96 S9        30.01R FOG
PARIS*         CLOUDY    39  39 100 S9        30.04R FOG     WCI  33
$$

ILZ079-100>102-210900-
SOUTHWEST ILLINOIS

CITY           SKY/WX    TMP DP  RH WIND       PRES   REMARKS
ALTON          CLEAR     38  38 100 E5        29.98R FOG     WCI  35
BELLEVILLE     CLEAR     42  40  93 CALM      29.98R
CAHOKIA*       CLEAR     41  39  93 S3        29.97R
SPARTA*        CLOUDY    47  47 100 S6        30.01R
$$

ILZ064>066-069>071-074>076-080>082-084>086-088>090-092>094-210900-
SOUTH-CENTRAL ILLINOIS

CITY           SKY/WX    TMP DP  RH WIND       PRES   REMARKS
CARBONDALE     CLOUDY    53  50  89 SW18      30.01R
CAIRO*         CLOUDY    48  45  88 S9        30.05S
EFFINGHAM*     CLOUDY    41  41 100 SE6       30.03F
MARION         CLOUDY    49  48  98 S12       30.03R
MT. VERNON     CLOUDY    47  45  93 SW3       30.02R
CENTRALIA*     CLOUDY    45  44  96 CALM      30.01S
SALEM*         CLOUDY    48  45  88 S6        30.02S
METROPOLIS*    FAIR      50  43  76 S6        30.06S
$$

ILZ067-068-072-073-078-083-087-091-210900-
SOUTHEAST ILLINOIS

CITY           SKY/WX    TMP DP  RH WIND       PRES   REMARKS
LAWRENCEVILLE  CLOUDY    39  32  76 CALM      30.05S
FLORA*         CLOUDY    42  40  93 SE5       30.03R
FAIRFIELD*     CLOUDY    45  44  97 CALM      30.02S
HARRISBURG*    MOCLDY    49  45  86 SW7       30.04S
ROBINSON*      CLOUDY    42  40  93 S7        30.05S
CARMI*         CLOUDY    38  37  97 CALM      30.03S
$$

ABBREVIATIONS USED IN REMARKS
   TC - TEMPERATURE IN CELSIUS
  WCI - WIND CHILL INDEX
   HX - HEAT INDEX
  VSB - VISIBILITY
$$




USA.gov is the U.S. government's official web portal to all federal, state and local government web resources and services.